Change the Weather History Date:

Saturday, May 25, 2013

  Actual Average Record
Temperature  
Mean Temperature 56 °F -  
Max Temperature 61 °F 73 °F 92 °F (1967)
Min Temperature 50 °F 48 °F 36 °F (1968)
Degree Days  
Heating Degree Days 10    
Growing Degree Days 6 (Base 50)    
Moisture  
Dew Point 51 °F    
Average Humidity 85    
Maximum Humidity 97    
Minimum Humidity 53    
Precipitation  
Precipitation 0.15 in - - ()
Sea Level Pressure  
Sea Level Pressure 30.10 in    
Wind  
Wind Speed 13 mph (SE)    
Max Wind Speed 18 mph    
Max Gust Speed 25 mph    
Visibility 8 miles    
Events Rain , Thunderstorm    
Averages and records for this station are not official NWS values.
T = Trace of Precipitation, MM = Missing Value Source: NWS Daily Summary

Daily Weather History Graph

Daily Weather History Graph

Search for Another Location

Airport or City:

Trip Planner

Search our weather history database for the weather conditions in past years. The results will help you decide how hot, cold, wet, or windy it might be!

Date:

Astronomy

May. 25, 2013 Rise Set
Actual Time 5:50 AM CDT 8:48 PM CDT
Civil Twilight 5:17 AM CDT 9:21 PM CDT
Nautical Twilight 4:34 AM CDT 10:04 PM CDT
Astronomical Twilight 3:44 AM CDT 10:54 PM CDT
Moon 9:36 PM CDT (5/25) 6:19 AM CDT (5/25)
Length of Visible Light 16h 04m
Length of Day
14h 57m
Full, 100% of the Moon is Illuminated
May 25
Full
May 31
Last Quarter
Jun 8
New
Jun 16
First Quarter
Jun 23
Full

Hourly Weather History & Observations

Time (CDT) Temp. Dew Point Humidity Pressure Visibility Wind Dir Wind Speed Gust Speed Precip Events Conditions
12:15 AM 60.8 °F 44.6 °F 55% 30.15 in 10.0 mi SE 15.0 mph 21.9 mph N/A   Overcast
12:35 AM 60.8 °F 43.9 °F 54% 30.13 in 10.0 mi SE 17.3 mph 21.9 mph N/A   Overcast
12:55 AM 60.4 °F 43.7 °F 54% 30.11 in 10.0 mi SE 16.1 mph 23.0 mph N/A   Overcast
1:15 AM 60.1 °F 43.2 °F 54% 30.11 in 10.0 mi SSE 17.3 mph 21.9 mph N/A   Overcast
1:35 AM 59.9 °F 42.8 °F 53% 30.11 in 10.0 mi SE 17.3 mph 23.0 mph N/A   Overcast
1:55 AM 59.9 °F 42.8 °F 53% 30.12 in 10.0 mi SSE 18.4 mph 24.2 mph N/A   Overcast
2:15 AM 59.4 °F 43.3 °F 55% 30.09 in 10.0 mi SSE 13.8 mph 24.2 mph N/A   Overcast
2:35 AM 58.3 °F 44.4 °F 60% 30.09 in 10.0 mi SSE 16.1 mph 23.0 mph N/A   Overcast
2:55 AM 58.6 °F 44.2 °F 59% 30.09 in 10.0 mi SSE 13.8 mph 18.4 mph N/A   Overcast
3:15 AM 58.5 °F 44.1 °F 59% 30.09 in 10.0 mi SSE 10.4 mph 16.1 mph N/A Thunderstorm Overcast
3:35 AM 58.3 °F 44.2 °F 60% 30.09 in 10.0 mi SSE 13.8 mph - N/A   Overcast
3:55 AM 58.1 °F 44.8 °F 61% 30.08 in 10.0 mi SSE 11.5 mph 16.1 mph N/A Thunderstorm Overcast
4:15 AM 54.7 °F 49.1 °F 81% 30.07 in 10.0 mi SE 11.5 mph 17.3 mph 0.01 in Rain , Thunderstorm Light Thunderstorms and Rain
4:35 AM 54.1 °F 50.0 °F 86% 30.08 in 7.0 mi SSE 8.1 mph - 0.02 in Rain Heavy Rain
4:55 AM 54.5 °F 49.6 °F 84% 30.08 in 10.0 mi SSE 13.8 mph 19.6 mph 0.08 in Rain , Thunderstorm Light Thunderstorms and Rain
5:15 AM 53.2 °F 50.0 °F 89% 30.09 in 4.0 mi SSE 11.5 mph 20.7 mph 0.06 in Rain , Thunderstorm Heavy Thunderstorms and Rain
5:35 AM 52.7 °F 50.5 °F 92% 30.05 in 10.0 mi SSE 13.8 mph 23.0 mph 0.06 in Thunderstorm Thunderstorm
5:55 AM 52.9 °F 50.9 °F 93% 30.07 in 10.0 mi SE 10.4 mph - 0.06 in Thunderstorm Unknown
6:15 AM 53.1 °F 50.0 °F 89% 30.08 in 10.0 mi SE 11.5 mph - N/A Rain , Thunderstorm Light Thunderstorms and Rain
6:35 AM 53.1 °F 50.2 °F 90% 30.07 in 10.0 mi SSE 10.4 mph - N/A Rain Light Rain
6:55 AM 52.7 °F 50.4 °F 92% 30.07 in 10.0 mi East 8.1 mph 20.7 mph N/A Rain Rain
7:15 AM 52.5 °F 50.5 °F 93% 30.04 in 10.0 mi ESE 9.2 mph 17.3 mph 0.01 in Rain Rain
7:35 AM 52.7 °F 50.7 °F 93% 30.07 in 10.0 mi East 8.1 mph - 0.01 in   Overcast
7:55 AM 52.7 °F 50.9 °F 94% 30.10 in 10.0 mi NE 5.8 mph - 0.01 in   Overcast
8:15 AM 53.1 °F 51.3 °F 94% 30.09 in 10.0 mi ESE 5.8 mph - N/A   Overcast
8:35 AM 53.2 °F 51.4 °F 94% 30.10 in 10.0 mi ESE 8.1 mph - N/A   Overcast
8:55 AM 52.9 °F 50.9 °F 93% 30.10 in 10.0 mi ESE 5.8 mph - N/A   Overcast
9:15 AM 53.1 °F 51.1 °F 93% 30.10 in 10.0 mi ESE 6.9 mph - N/A   Overcast
9:35 AM 53.2 °F 51.4 °F 94% 30.11 in 10.0 mi ESE 10.4 mph - N/A   Overcast
9:55 AM 53.1 °F 50.9 °F 92% 30.13 in 10.0 mi ESE 11.5 mph - N/A   Overcast
10:15 AM 53.6 °F 51.3 °F 92% 30.12 in 10.0 mi SE 15.0 mph 20.7 mph N/A   Overcast
10:35 AM 53.6 °F 51.4 °F 92% 30.11 in 10.0 mi ESE 17.3 mph 24.2 mph N/A   Overcast
10:55 AM 53.8 °F 51.3 °F 91% 30.11 in 10.0 mi ESE 17.3 mph 23.0 mph N/A   Overcast
11:15 AM 54.3 °F 51.6 °F 91% 30.11 in 10.0 mi SE 16.1 mph 23.0 mph N/A   Overcast
11:35 AM 54.9 °F 52.0 °F 90% 30.11 in 10.0 mi ESE 16.1 mph 19.6 mph N/A   Overcast
11:55 AM 55.4 °F 52.2 °F 89% 30.11 in 10.0 mi SE 12.7 mph 23.0 mph N/A   Overcast
12:15 PM 56.5 °F 52.9 °F 88% 30.11 in 10.0 mi SE 15.0 mph - N/A   Overcast
12:35 PM 56.3 °F 52.7 °F 88% 30.11 in 10.0 mi ESE 13.8 mph 18.4 mph N/A   Overcast
12:55 PM 56.5 °F 53.2 °F 89% 30.11 in 10.0 mi SE 15.0 mph - N/A   Overcast
1:15 PM 57.9 °F 54.5 °F 88% 30.10 in 10.0 mi ESE 11.5 mph 19.6 mph N/A   Overcast
1:35 PM 59.9 °F 55.8 °F 86% 30.09 in 10.0 mi ESE 11.5 mph 20.7 mph N/A   Overcast
1:55 PM 61.7 °F 56.7 °F 84% 30.10 in 10.0 mi SE 12.7 mph 19.6 mph N/A   Mostly Cloudy
2:15 PM 61.3 °F 56.3 °F 83% 30.10 in 10.0 mi SE 13.8 mph 21.9 mph N/A   Overcast
2:35 PM 60.8 °F 55.9 °F 84% 30.10 in 10.0 mi SE 16.1 mph - N/A   Overcast
2:55 PM 60.6 °F 56.1 °F 85% 30.10 in 10.0 mi SE 9.2 mph - N/A   Overcast
3:15 PM 60.4 °F 55.4 °F 83% 30.09 in 10.0 mi SE 10.4 mph 17.3 mph N/A   Overcast
3:35 PM 59.9 °F 55.4 °F 85% 30.10 in 10.0 mi SE 13.8 mph - N/A   Overcast
3:55 PM 59.9 °F 55.2 °F 84% 30.10 in 10.0 mi ESE 11.5 mph - N/A   Overcast
4:15 PM 59.9 °F 55.2 °F 84% 30.09 in 10.0 mi East 10.4 mph 16.1 mph N/A   Overcast
4:35 PM 59.2 °F 54.9 °F 86% 30.09 in 10.0 mi ESE 11.5 mph 17.3 mph N/A   Overcast
4:55 PM 58.5 °F 54.7 °F 87% 30.09 in 10.0 mi ESE 11.5 mph 17.3 mph N/A   Overcast
5:15 PM 59.2 °F 55.0 °F 86% 30.09 in 10.0 mi ESE 10.4 mph 16.1 mph N/A   Overcast
5:35 PM 59.4 °F 54.9 °F 85% 30.09 in 10.0 mi East 10.4 mph 18.4 mph N/A   Overcast
5:55 PM 58.5 °F 54.7 °F 87% 30.09 in 10.0 mi ESE 11.5 mph - N/A   Overcast
6:15 PM 57.7 °F 54.1 °F 88% 30.09 in 10.0 mi ESE 12.7 mph 18.4 mph N/A   Overcast
6:35 PM 57.2 °F 54.3 °F 90% 30.08 in 7.0 mi ESE 13.8 mph 19.6 mph N/A   Overcast
6:55 PM 56.5 °F 53.8 °F 91% 30.08 in 7.0 mi ESE 11.5 mph 19.6 mph N/A   Overcast
7:15 PM 55.8 °F 53.6 °F 92% 30.08 in 5.0 mi ESE 11.5 mph 16.1 mph N/A   Overcast
7:35 PM 55.4 °F 53.6 °F 94% 30.09 in 5.0 mi ESE 8.1 mph - N/A   Overcast
7:55 PM 54.7 °F 53.4 °F 96% 30.09 in 4.0 mi ESE 13.8 mph 18.4 mph N/A   Overcast
8:15 PM 54.0 °F 52.9 °F 96% 30.08 in 2.0 mi ESE 11.5 mph 18.4 mph N/A   Overcast
8:35 PM 53.6 °F 52.7 °F 97% 30.08 in 2.0 mi East 11.5 mph 19.6 mph N/A   Overcast
8:55 PM 53.2 °F 52.3 °F 97% 30.08 in 4.0 mi East 11.5 mph 20.7 mph N/A   Overcast
9:15 PM 52.7 °F 51.8 °F 97% 30.09 in 3.0 mi ESE 13.8 mph 18.4 mph N/A   Overcast
9:35 PM 52.7 °F 51.8 °F 97% 30.10 in 4.0 mi East 13.8 mph 20.7 mph N/A   Overcast
9:55 PM 52.2 °F 51.3 °F 97% 30.12 in 5.0 mi ESE 11.5 mph 20.7 mph N/A   Overcast
10:15 PM 51.6 °F 50.7 °F 97% 30.12 in 3.0 mi East 15.0 mph 19.6 mph N/A   Overcast
10:35 PM 51.4 °F 50.5 °F 97% 30.12 in 3.0 mi ESE 12.7 mph 19.6 mph N/A   Overcast
10:55 PM 50.9 °F 50.0 °F 97% 30.10 in 2.5 mi ESE 16.1 mph 23.0 mph N/A   Overcast
11:15 PM 50.7 °F 50.0 °F 97% 30.10 in 2.5 mi ESE 18.4 mph 25.3 mph N/A Thunderstorm Overcast
11:35 PM 50.7 °F 49.8 °F 97% 30.08 in 7.0 mi SE 16.1 mph 23.0 mph N/A   Overcast
11:55 PM 50.5 °F 49.5 °F 96% 30.09 in 4.0 mi ESE 11.5 mph 20.7 mph N/A   Overcast